GW1508 Weather Reports


time (UTC)temp
F
wind
direction
speed
knots
gust
knots
rain 1hr
in
rain 24hr
in
rain mn
in
humidity
%
barometer
mb
20260507132910 42 93 1.7 7.0 0.04 0.31 0.18 93 1017.9
20260507131409 41 214 0.0 3.5 0.04 0.30 0.17 93 1017.9
20260507125858 39 72 0.9 5.2 0.05 0.29 0.17 94 1018.1
20260507122908 37 161 1.7 6.1 0.09 0.29 0.14 94 1018.1
20260507115913 38 166 0.9 4.3 0.08 0.27 0.12 94 1017.7
20260507114409 39 302 0.9 2.6 0.06 0.27 0.09 94 1017.8
20260507111411 41 350 0.9 5.2 0.00 0.21 0.04 94 1017.4
20260507105900 42 283 0.0 4.3 0.00 0.21 0.04 94 1017.4
20260507102904 43 83 1.7 4.3 0.00 0.22 0.04 93 1017.3
20260507095904 44 103 0.9 7.8 0.00 0.22 0.04 91 1017.5
20260507094358 45 43 2.6 5.2 0.00 0.24 0.04 93 1017.5
20260507092853 44 130 0.0 2.6 0.01 0.24 0.04 93 1017.3
20260507085905 44 146 0.9 4.3 0.01 0.24 0.04 92 1017.3
20260507084400 44 124 1.7 7.0 0.01 0.24 0.04 91 1017.2
20260507082854 45 51 1.7 6.1 0.01 0.24 0.03 88 1017.1
20260507080226 43 109 0.9 4.3 0.01 0.24 0.03 91 1016.9
20260507073919 40 95 1.7 4.3 0.01 0.24 0.02 94 1016.9
20260507070056 37 152 0.0 0.0 0.01 0.24 0.02 94 1016.8
20260507064406 38 152 0.0 0.0 0.01 0.38 0.02 94 1016.4
20260507061400 38 288 0.0 4.3 0.01 0.38 0.02 93 1016.6
20260507054404 36 204 0.0 4.3 0.00 0.43 0.01 93 1016.4
20260507052900 36 70 0.0 3.5 0.00 0.43 0.01 93 1016.3
20260507045908 33 336 0.0 0.0 0.00 0.43 0.01 93 1016.2
20260507044405 31 314 0.0 0.9 0.00 0.43 0.01 93 1016.1
20260507042855 31 315 0.0 0.0 0.00 0.43 0.01 93 1015.9
20260507035905 30 315 0.0 0.0 0.00 0.43 0.01 94 1015.5
20260507034401 32 315 0.0 0.0 0.00 0.43 0.01 93 1015.5
20260507032859 30 315 0.0 0.0 0.00 0.43 0.01 93 1015.6
20260507025905 31 315 0.0 1.7 0.00 0.43 0.01 93 1015.7
20260507024401 26 315 0.0 1.7 0.00 0.43 0.01 94 1015.5
20260507022855 26 317 0.0 0.0 0.00 0.43 0.01 94 1015.6
20260507015908 28 317 0.0 0.0 0.00 0.43 0.01 94 1015.6
20260507014404 29 317 0.0 0.0 0.00 0.43 0.01 94 1015.6
20260507011351 30 317 0.0 0.9 0.00 0.43 0.01 94 1015.6
20260507004403 31 317 0.0 0.0 0.00 0.43 0.01 94 1015.5
20260507002900 32 317 0.0 0.0 0.00 0.43 0.01 94 1015.5
20260506235856 31 33 0.0 1.7 0.00 0.43 0.01 94 1015.5
20260506232905 34 33 0.0 0.0 0.00 0.43 0.01 94 1015.3
20260506231402 35 33 0.0 1.7 0.01 0.43 0.01 93 1015.5
20260506224407 37 51 1.7 2.6 0.01 0.43 0.01 93 1015.3
20260506222900 38 103 2.6 5.2 0.01 0.43 0.01 93 1015.3
20260506215917 38 88 1.7 5.2 0.02 0.43 0.00 93 1015.4
20260506212901 38 69 0.9 6.1 0.01 0.42 0.42 93 1015.5
20260506211352 39 63 2.6 5.2 0.02 0.42 0.42 93 1015.6
20260506204404 38 104 0.0 1.7 0.02 0.41 0.41 93 1015.4
20260506202859 38 97 1.7 6.1 0.02 0.41 0.41 93 1015.2
20260506195911 39 80 0.0 4.3 0.02 0.39 0.39 93 1015.3
20260506194407 39 78 2.6 5.2 0.02 0.40 0.39 93 1015.1
20260506192858 39 103 0.9 4.3 0.04 0.39 0.39 93 1014.8
20260506185907 38 50 3.5 6.1 0.04 0.39 0.38 94 1014.5
20260506184403 39 99 0.0 1.7 0.03 0.38 0.37 94 1014.7
20260506181408 40 85 0.0 1.7 0.00 0.35 0.34 93 1014.1
20260506175902 40 85 0.0 3.5 0.00 0.35 0.34 93 1013.8
20260506174359 41 83 1.7 5.2 0.00 0.35 0.34 93 1013.9
20260506171405 40 103 0.0 3.5 0.00 0.35 0.34 93 1013.6
20260506165901 40 62 0.0 0.9 0.00 0.35 0.34 93 1013.5
20260506162916 40 128 0.0 7.0 0.00 0.36 0.34 93 1013.5
20260506161402 41 213 2.6 8.7 0.00 0.36 0.34 93 1013.3
20260506155856 41 98 1.7 5.2 0.00 0.36 0.34 93 1013.4
20260506152906 42 60 0.0 4.3 0.00 0.37 0.34 93 1013.4
20260506151403 42 27 0.9 8.7 0.00 0.37 0.34 93 1013.3
20260506145859 41 112 2.6 6.1 0.00 0.37 0.34 93 1013.4
20260506144353 41 101 2.6 6.1 0.02 0.37 0.34 93 1013.5
20260506141405 41 90 3.5 10.4 0.04 0.37 0.34 93 1013.5
20260506135859 38 112 1.7 6.1 0.04 0.37 0.34 93 1013.7